Rock Hill, SC

12:39 AM EDT on September 28, 2016 (GMT -0400)
Rock Hill-York County-Bryant

Weather History for KUZA - February, 2012

Change the Weather History Date:

Tuesday, February 28, 2012

  Actual Average Record
Temperature  
Mean Temperature 57 °F -  
Max Temperature 69 °F 58 °F 79 °F (2011)
Min Temperature 45 °F 35 °F 15 °F (2002)
Degree Days  
Heating Degree Days 8    
Growing Degree Days 7 (Base 50)    
Moisture  
Dew Point 44 °F    
Average Humidity 72    
Maximum Humidity 100    
Minimum Humidity 30    
Precipitation  
Precipitation 0.01 in - - ()
Sea Level Pressure  
Sea Level Pressure 30.36 in    
Wind  
Wind Speed 2 mph (SSE)    
Max Wind Speed 7 mph    
Max Gust Speed -    
Visibility 6 miles    
Events Fog    
Averages and records for this station are not official NWS values.
T = Trace of Precipitation, MM = Missing Value Source: NWS Daily Summary

Daily Weather History Graph

Daily Weather History Graph

Search for Another Location

Airport or City:

Trip Planner

Search our weather history database for the weather conditions in past years. The results will help you decide how hot, cold, wet, or windy it might be!

Date:

Astronomy

Feb. 28, 2012 Rise Set
Actual Time 6:55 AM EST 6:18 PM EST
Civil Twilight 6:30 AM EST 6:44 PM EST
Nautical Twilight 6:00 AM EST 7:13 PM EST
Astronomical Twilight 5:31 AM EST 7:42 PM EST
Moon 10:18 AM EST No Moon Set
Length of Visible Light 12h 13m
Length of Day
11h 23m
Waxing Crescent, 37% of the Moon is Illuminated
Feb 28
Waxing Crescent
Feb 29
First Quarter
Mar 8
Full
Mar 14
Last Quarter
Mar 22
New

Hourly Weather History & Observations

Time (EST) Temp. Windchill Dew Point Humidity Pressure Visibility Wind Dir Wind Speed Gust Speed Precip Events Conditions
12:54 AM 46.9 °F - 46.9 °F 100% 30.37 in 0.2 mi Calm Calm - N/A Fog Fog
1:54 AM 46.9 °F - 46.9 °F 100% 30.37 in 0.2 mi NNE 4.6 mph - N/A Fog Fog
2:54 AM 46.9 °F - 46.9 °F 100% 30.37 in 0.2 mi Calm Calm - N/A Fog Fog
3:54 AM 45.0 °F - 45.0 °F 100% 30.36 in 0.2 mi Calm Calm - 0.01 in Fog Fog
4:54 AM 46.0 °F - 46.0 °F 100% 30.37 in 0.2 mi Calm Calm - N/A Fog Fog
5:54 AM 46.0 °F - 46.0 °F 100% 30.38 in 0.2 mi Calm Calm - N/A Fog Fog
6:54 AM 46.0 °F - 46.0 °F 100% 30.40 in 0.2 mi Calm Calm - N/A Fog Fog
7:54 AM 46.0 °F 44.8 °F 46.0 °F 100% 30.42 in 0.2 mi East 3.5 mph - N/A Fog Fog
8:05 AM 46.4 °F - 46.4 °F 100% 30.42 in 1.0 mi Calm Calm - N/A   Overcast
8:35 AM 46.4 °F - 46.4 °F 100% 30.43 in 2.5 mi Calm Calm - N/A   Overcast
8:42 AM 46.4 °F - 46.4 °F 100% 30.43 in 4.0 mi Calm Calm - N/A   Overcast
8:54 AM 48.0 °F - 48.0 °F 100% 30.44 in 5.0 mi Calm Calm - N/A   Mostly Cloudy
9:14 AM 48.2 °F - 46.4 °F 93% 30.43 in 7.0 mi NNE 3.5 mph - N/A   Partly Cloudy
9:54 AM 54.0 °F - 48.0 °F 80% 30.43 in 10.0 mi Variable 3.5 mph - N/A   Clear
10:54 AM 59.0 °F - 43.0 °F 55% 30.41 in 10.0 mi Variable 5.8 mph - N/A   Clear
11:54 AM 62.1 °F - 39.9 °F 44% 30.39 in 10.0 mi Variable 4.6 mph - N/A   Clear
12:54 PM 66.0 °F - 35.1 °F 32% 30.36 in 10.0 mi SE 6.9 mph - N/A   Clear
1:54 PM 68.0 °F - 35.1 °F 30% 30.33 in 10.0 mi South 4.6 mph - N/A   Clear
2:54 PM 69.1 °F - 36.0 °F 30% 30.32 in 10.0 mi South 6.9 mph - N/A   Clear
3:54 PM 69.1 °F - 39.0 °F 33% 30.30 in 10.0 mi SE 4.6 mph - N/A   Scattered Clouds
4:54 PM 68.0 °F - 39.9 °F 36% 30.29 in 10.0 mi SSW 5.8 mph - N/A   Partly Cloudy
5:54 PM 64.9 °F - 41.0 °F 42% 30.29 in 10.0 mi South 6.9 mph - N/A   Clear
6:54 PM 61.0 °F - 43.0 °F 52% 30.32 in 10.0 mi SSW 3.5 mph - N/A   Clear
7:54 PM 60.1 °F - 44.1 °F 55% 30.30 in 10.0 mi South 4.6 mph - N/A   Clear
8:54 PM 61.0 °F - 43.0 °F 52% 30.29 in 10.0 mi SSE 4.6 mph - N/A   Mostly Cloudy
9:54 PM 57.0 °F - 44.1 °F 62% 30.32 in 10.0 mi Calm Calm - N/A   Mostly Cloudy
10:54 PM 59.0 °F - 44.1 °F 58% 30.28 in 10.0 mi SSE 4.6 mph - N/A   Overcast
11:54 PM 59.0 °F - 42.1 °F 53% 30.27 in 10.0 mi South 6.9 mph - N/A   Overcast